Weather observations for the past three days for
Kalskag
Imperial (Metric)
Date Time (akdt) Wind (mph) Vis. (mi.) Weather Sky Cond. Temperature (ºF) Relative Humidity Wind Chill (°F) Heat Index (°F) Pressure Precipitation (in)
Air Dwpt 6 hour altimeter (in) sea level (mb) 1 hr 3 hr 6 hr
Max. Min.
15 14:56 Vrbl 5 10.00 Light Rain OVC015 48 45 89% 47 29.73 1007.1
15 13:56 Vrbl 5 10.00 Light Rain BKN015 OVC021 48 45 89% 47 29.72 1006.7
15 12:56 Vrbl 6 10.00 Overcast OVC011 46 45 96% 44 29.71 1006.5
15 11:56 Vrbl 5 10.00 Overcast OVC009 46 45 96% 44 29.68 1005.6
15 10:56 Vrbl 5 10.00 Light Rain OVC007 46 45 96% 44 29.69 1005.9
15 09:56 Vrbl 5 10.00 Light Rain OVC007 45 45 45 44.1 100% 43 29.68 1005.5
15 08:56 Vrbl 5 10.00 Light Rain OVC007 45 44.1 97% 43 29.67 1005.0
15 07:56 Vrbl 5 10.00 Light Rain OVC007 45 45 100% 43 29.65 1004.5
15 06:56 Vrbl 5 10.00 Light Rain BKN012 OVC027 44.1 43 96% 42 29.64 1003.9
15 05:56 Vrbl 6 10.00 Light Rain OVC008 45 44.1 97% 42 29.63 1003.6
15 04:56 Vrbl 5 10.00 Light Rain OVC010 45 44.1 97% 43 29.61 1003.2
15 03:56 Vrbl 6 9.00 Light Rain OVC010 44.1 44.1 46 44.1 100% 41 29.61 1002.9
15 02:56 Vrbl 6 10.00 Light Rain OVC010 44.1 43 96% 41 29.6 1002.6
15 01:56 Vrbl 6 10.00 Light Rain BKN010 OVC026 45 44.1 97% 42 29.59 1002.3
15 00:56 Vrbl 3 10.00 Light Rain OVC012 45 44.1 97% 29.57 1001.7
14 23:56 Vrbl 3 10.00 Overcast OVC012 45 44.1 97% 29.56 1001.2
14 22:56 Vrbl 5 10.00 Light Rain BKN010 BKN014 OVC021 46 45 96% 44 29.54 1000.6
14 21:56 Calm 10.00 Light Rain OVC010 46 45 46 45 96% 29.53 1000.2
14 20:56 Vrbl 3 10.00 Light Rain SCT010 BKN028 OVC040 46 45 96% 29.52 1000.0
14 19:56 Vrbl 5 10.00 Light Rain FEW014 BKN027 OVC040 45 44.1 97% 43 29.52 999.9
14 18:56 Calm 8.00 Light Rain SCT011 BKN026 OVC044 45 45 100% 29.51 999.7
14 17:56 Vrbl 6 10.00 Light Rain BKN011 BKN035 OVC044 45 44.1 97% 42 29.51 999.6
14 16:56 Vrbl 5 10.00 Light Rain BKN011 OVC039 45 44.1 97% 43 29.51 999.6
14 15:56 S 5 10.00 Light Rain FEW007 SCT011 OVC021 45 43 46.9 43 93% 43 29.5 999.2
14 14:56 Vrbl 5 10.00 Light Rain FEW011 OVC020 44.1 42.1 93% 42 29.49 998.9
14 13:56 Vrbl 6 6.00 Light Rain Fog/Mist OVC012 45 43 93% 42 29.47 998.4
14 12:56 Vrbl 6 10.00 Light Rain OVC016 45 42.1 90% 42 29.46 998.0
14 11:56 S 9 10.00 Overcast BKN014 OVC031 45 42.1 90% 41 29.45 997.6
14 10:56 Vrbl 7 10.00 Light Rain FEW016 OVC034 43 41 93% 39 29.45 997.5
14 09:56 Vrbl 7 10.00 Overcast SCT011 OVC020 43 41 44.1 42.1 93% 39 29.43 997.1
14 08:56 Vrbl 5 10.00 Light Rain BKN009 OVC014 44.1 42.1 93% 42 29.42 996.5
14 06:56 S 8 6.00 Light Rain Fog/Mist OVC007 44.1 43 96% 40 29.38 995.2
14 00:56 Calm 9.00 Light Rain SCT005 BKN010 OVC021 45 45 100% 29.37 994.7
13 23:56 Calm 8.00 Light Rain FEW010 BKN033 OVC046 46 45 96% 29.37 994.7
13 22:56 Calm 8.00 Light Rain BKN033 OVC044 46 45 96% 29.38 995.0
13 21:56 Calm 10.00 Rain FEW006 BKN026 OVC030 46.9 46 51.1 46.9 97% 29.38 995.3
13 20:56 Calm 10.00 Light Rain BKN015 BKN024 OVC036 46.9 45 93% 29.4 995.7
13 19:56 W 3 10.00 Light Rain FEW007 BKN031 OVC048 48 46.9 96% 29.41 996.1
13 18:56 Vrbl 3 10.00 Light Rain BKN045 OVC055 48 46.9 96% 29.42 996.6
13 17:56 Vrbl 3 10.00 Rain FEW007 BKN019 OVC024 48 46.9 96% 29.44 997.3
13 16:56 W 3 10.00 Light Rain SCT011 BKN017 OVC023 50 46.9 89% 29.45 997.6
13 15:56 Calm 9.00 Light Rain OVC020 50 46.9 51.1 46.9 89% 29.46 998.0
13 14:56 Calm 10.00 Overcast SCT042 SCT050 OVC080 51.1 45 80% 29.48 998.4
13 13:56 Calm 10.00 Overcast BKN014 OVC029 48.9 45 86% 29.5 999.3
13 12:56 Calm 10.00 Overcast OVC012 48.9 45 86% 29.52 999.8
13 11:56 Calm 10.00 Overcast BKN012 OVC037 48.9 45 86% 29.53 1000.1
13 10:56 Calm 10.00 Overcast OVC010 48 45 89% 29.52 999.9
13 09:56 Vrbl 3 10.00 Overcast OVC008 46.9 45 46.9 45 93% 29.55 1000.9
13 08:56 Vrbl 3 10.00 Overcast OVC006 46 45 96% 29.53 1000.2
13 07:56 Calm 10.00 Overcast OVC006 45 44.1 97% 29.55 1001.0
13 06:56 Vrbl 3 10.00 Overcast OVC006 45 44.1 97% 29.56 1001.1
13 05:56 Vrbl 6 10.00 Overcast OVC008 45 44.1 97% 42 29.55 1001.0
13 04:56 Vrbl 3 9.00 Overcast OVC008 45 44.1 97% 29.56 1001.2
13 03:56 Vrbl 6 7.00 Light Rain BKN012 BKN024 OVC041 46 44.1 52 46 93% 44 29.55 1001.0
13 02:56 S 9 10.00 Overcast FEW013 BKN041 OVC049 46 44.1 93% 42 29.54 1000.4
13 01:56 Vrbl 3 10.00 Overcast BKN013 OVC038 46.9 44.1 90% 29.53 1000.3
13 00:56 Vrbl 6 10.00 Overcast BKN021 BKN036 OVC044 48 44.1 86% 46 29.51 999.8
12 23:56 Vrbl 7 10.00 Overcast OVC015 48.9 46 90% 46 29.49 998.9
12 22:56 Vrbl 6 10.00 Overcast OVC020 50 46 86% 48 29.47 998.2
12 21:56 Vrbl 7 10.00 Overcast BKN018 OVC022 52 48.9 57 52 89% 29.44 997.3
12 20:56 Vrbl 6 10.00 Overcast SCT008 OVC017 52 51.1 97% 29.42 996.5
12 19:56 Vrbl 3 3.00 Light Rain Fog/Mist SCT008 BKN017 OVC034 53.1 52 96% 29.4 995.8
12 18:56 Vrbl 7 9.00 Overcast FEW021 BKN035 OVC060 55.9 51.1 84% 29.38 995.2
12 17:56 E 10 G 18 10.00 Overcast FEW014 BKN070 OVC085 55.9 52 87% 29.39 995.5
12 16:56 E 9 10.00 Light Rain FEW012 OVC060 54 52 93% 29.41 996.0
12 15:56 E 10 G 18 10.00 Light Rain BKN010 OVC014 53.1 52 53.1 50 96% 29.43 996.9
Date Time (akdt) Wind (mph) Vis. (mi.) Weather Sky Cond. Air Dwpt Max. Min. Relative Humidity Wind Chill (°F) Heat Index (°F) altimeter (in) sea level (mb) 1 hr 3 hr 6 hr
6 hour
Temperature (ºF) Pressure Precipitation (in)